Погода в Жердя

Украина / Хмельницкая область     48°48′32″N   26°26′09″E
темп.,
°C
ветер,
м/с
пор.,
м/с
влажн.,
%
обл.,
%
осадки,
мм/ч
давл.,
гПа
погр.,
м
27 июля, вт
вт2700:00+18юв35775 0.0 101880
03:00+17юв377823 0.0 1017116
06:00+16ююв3883100 0.4 1017146
09:00+21ююв477398 0.7 1017237
12:00+23ююв467191 0.1 1017255
15:00+28ююв56555 0.1 1016655
18:00+22ююв2582100 1.4 1016154
21:00+22ююв46820 1.8 101581
28 июля, ср
ср2800:00+20ю34864 0.0 101657
03:00+20зюз22805 0.0 101516
06:00+19зсз34806 0.0 101549
09:00+24сз34736 0.0 1016261
12:00+29з235111 0.0 1015824
15:00+32ююз344266 0.0 10141600
18:00+30ю33480 0.0 1012434
21:00+26юв366434 0.0 1012114
29 июля, чт
чт2900:00+22зюз13674 0.1 101239
03:00+20ююв38748 0.1 1012151
06:00+19ююв11760 0.0 101111
09:00+24сз46653 0.0 1012310
12:00+28ссз445673 0.0 10121013
15:00+30сз444914 0.0 10121744
18:00+29сз345014 0.0 10111738
21:00+21сз488581 2.9 1012144
30 июля, пт
пт3000:00+20ссз35920 1.4 1013101
03:00+19сз22920 1.4 101418
06:00+18ссз22920 0.0 101323
09:00+22сз00753 0.0 1013261
12:00+27ю11540 0.0 1012978
15:00+29ююв32440 0.0 10111258
18:00+29юв45494 0.0 10091006
21:00+24вюв226282 0.0 100925
31 июля, сб
сб3100:00+20ю3489100 1.7 1011113
03:00+19зсз239699 1.8 100977
06:00+18с23955 0.0 101049
09:00+22св22765 0.0 1010384
12:00+27ссз11585 0.0 1010900
15:00+30ссз114964 0.0 10091351
18:00+30ссв114868 0.0 10081519
21:00+24ююв237332 1.4 100846